Year,Month,Day,Hour,Minute,Value (Times are PST for temperature in C)
2006,05,02,00,00,5.60
2006,05,02,00,01,5.60
2006,05,02,00,02,5.50
2006,05,02,00,03,5.50
2006,05,02,00,04,5.50
2006,05,02,00,05,5.50
2006,05,02,00,06,5.50
2006,05,02,00,07,5.50
2006,05,02,00,08,5.50
2006,05,02,00,09,5.40
2006,05,02,00,10,5.40
2006,05,02,00,11,5.50
2006,05,02,00,12,5.50
2006,05,02,00,13,5.40
2006,05,02,00,14,5.40
2006,05,02,00,15,5.30
2006,05,02,00,16,5.30
2006,05,02,00,17,5.30
2006,05,02,00,18,5.20
2006,05,02,00,19,5.20
2006,05,02,00,20,5.10
2006,05,02,00,21,5.10
2006,05,02,00,22,5.10
2006,05,02,00,23,5.10
2006,05,02,00,24,5.10
2006,05,02,00,25,5.10
2006,05,02,00,26,5.10
2006,05,02,00,27,5.10
2006,05,02,00,28,5.10
2006,05,02,00,29,5.10
2006,05,02,00,30,5.10
2006,05,02,00,31,5.10
2006,05,02,00,32,5.10
2006,05,02,00,33,5.10
2006,05,02,00,34,5.10
2006,05,02,00,35,5.10
2006,05,02,00,36,5.10
2006,05,02,00,37,5.10
2006,05,02,00,38,5.10
2006,05,02,00,39,5.10
2006,05,02,00,40,5.10
2006,05,02,00,41,5.10
2006,05,02,00,42,5.10
2006,05,02,00,43,4.90
2006,05,02,00,44,4.90
2006,05,02,00,45,4.80
2006,05,02,00,46,4.80
2006,05,02,00,47,4.80
2006,05,02,00,48,4.70
2006,05,02,00,49,4.70
2006,05,02,00,50,4.80
2006,05,02,00,51,4.80
2006,05,02,00,52,4.80
2006,05,02,00,53,4.80
2006,05,02,00,54,4.80
2006,05,02,00,55,4.80
2006,05,02,00,56,4.70
2006,05,02,00,57,4.70
2006,05,02,00,58,4.70
2006,05,02,00,59,4.70
2006,05,02,01,00,4.70
2006,05,02,01,01,4.80
2006,05,02,01,02,4.80
2006,05,02,01,03,4.80
2006,05,02,01,04,4.80
2006,05,02,01,05,4.70
2006,05,02,01,06,4.70
2006,05,02,01,07,4.70
2006,05,02,01,08,4.70
2006,05,02,01,09,4.70
2006,05,02,01,10,4.60
2006,05,02,01,11,4.60
2006,05,02,01,12,4.60
2006,05,02,01,13,4.60
2006,05,02,01,14,4.60
2006,05,02,01,15,4.60
2006,05,02,01,16,4.60
2006,05,02,01,17,4.60
2006,05,02,01,18,4.60
2006,05,02,01,19,4.60
2006,05,02,01,20,4.60
2006,05,02,01,21,4.60
2006,05,02,01,22,4.60
2006,05,02,01,23,4.60
2006,05,02,01,24,4.50
2006,05,02,01,25,4.50
2006,05,02,01,26,4.40
2006,05,02,01,27,4.30
2006,05,02,01,28,4.20
2006,05,02,01,29,4.20
2006,05,02,01,30,4.20
2006,05,02,01,31,4.20
2006,05,02,01,32,4.20
2006,05,02,01,33,4.20
2006,05,02,01,34,4.20
2006,05,02,01,35,4.20
2006,05,02,01,36,4.20
2006,05,02,01,37,4.20
2006,05,02,01,38,4.20
2006,05,02,01,39,4.20
2006,05,02,01,40,4.20
2006,05,02,01,41,4.20
2006,05,02,01,42,4.20
2006,05,02,01,43,4.20
2006,05,02,01,44,4.20
2006,05,02,01,45,4.20
2006,05,02,01,46,4.20
2006,05,02,01,47,4.20
2006,05,02,01,48,4.20
2006,05,02,01,49,4.20
2006,05,02,01,50,4.20
2006,05,02,01,51,4.20
2006,05,02,01,52,4.20
2006,05,02,01,53,4.20
2006,05,02,01,54,4.20
2006,05,02,01,55,4.20
2006,05,02,01,56,4.20
2006,05,02,01,57,4.20
2006,05,02,01,58,4.20
2006,05,02,01,59,4.20
2006,05,02,02,00,4.20
2006,05,02,02,01,4.10
2006,05,02,02,02,4.10
2006,05,02,02,03,4.00
2006,05,02,02,04,4.00
2006,05,02,02,05,4.00
2006,05,02,02,06,3.90
2006,05,02,02,07,3.90
2006,05,02,02,08,3.80
2006,05,02,02,09,3.80
2006,05,02,02,10,3.80
2006,05,02,02,11,3.80
2006,05,02,02,12,3.80
2006,05,02,02,13,3.80
2006,05,02,02,14,3.80
2006,05,02,02,15,3.80
2006,05,02,02,16,3.80
2006,05,02,02,17,3.80
2006,05,02,02,18,3.80
2006,05,02,02,19,3.80
2006,05,02,02,20,3.80
2006,05,02,02,21,3.80
2006,05,02,02,22,3.80
2006,05,02,02,23,3.70
2006,05,02,02,24,3.60
2006,05,02,02,25,3.60
2006,05,02,02,26,3.60
2006,05,02,02,27,3.50
2006,05,02,02,28,3.50
2006,05,02,02,29,3.40
2006,05,02,02,30,3.40
2006,05,02,02,31,3.40
2006,05,02,02,32,3.30
2006,05,02,02,33,3.30
2006,05,02,02,34,3.30
2006,05,02,02,35,3.30
2006,05,02,02,36,3.30
2006,05,02,02,37,3.30
2006,05,02,02,38,3.30
2006,05,02,02,39,3.30
2006,05,02,02,40,3.30
2006,05,02,02,41,3.30
2006,05,02,02,42,3.20
2006,05,02,02,43,3.20
2006,05,02,02,44,3.20
2006,05,02,02,45,3.20
2006,05,02,02,46,3.20
2006,05,02,02,47,3.10
2006,05,02,02,48,3.10
2006,05,02,02,49,3.10
2006,05,02,02,50,3.20
2006,05,02,02,51,3.20
2006,05,02,02,52,3.20
2006,05,02,02,53,3.20
2006,05,02,02,54,3.20
2006,05,02,02,55,3.20
2006,05,02,02,56,3.10
2006,05,02,02,57,3.10
2006,05,02,02,58,3.10
2006,05,02,02,59,3.10
2006,05,02,03,00,3.00
2006,05,02,03,01,2.90
2006,05,02,03,02,2.90
2006,05,02,03,03,2.90
2006,05,02,03,04,2.90
2006,05,02,03,05,2.90
2006,05,02,03,06,2.80
2006,05,02,03,07,2.80
2006,05,02,03,08,2.80
2006,05,02,03,09,2.80
2006,05,02,03,10,2.70
2006,05,02,03,11,2.70
2006,05,02,03,12,2.70
2006,05,02,03,13,2.70
2006,05,02,03,14,2.70
2006,05,02,03,15,2.70
2006,05,02,03,16,2.60
2006,05,02,03,17,2.60
2006,05,02,03,18,2.60
2006,05,02,03,19,2.60
2006,05,02,03,20,2.60
2006,05,02,03,21,2.60
2006,05,02,03,22,2.50
2006,05,02,03,23,2.50
2006,05,02,03,24,2.50
2006,05,02,03,25,2.50
2006,05,02,03,26,2.50
2006,05,02,03,27,2.50
2006,05,02,03,28,2.50
2006,05,02,03,29,2.50
2006,05,02,03,30,2.50
2006,05,02,03,31,2.60
2006,05,02,03,32,2.60
2006,05,02,03,33,2.60
2006,05,02,03,34,2.50
2006,05,02,03,35,2.50
2006,05,02,03,36,2.50
2006,05,02,03,37,2.50
2006,05,02,03,38,2.50
2006,05,02,03,39,2.40
2006,05,02,03,40,2.40
2006,05,02,03,41,2.40
2006,05,02,03,42,2.40
2006,05,02,03,43,2.30
2006,05,02,03,44,2.30
2006,05,02,03,45,2.30
2006,05,02,03,46,2.30
2006,05,02,03,47,2.30
2006,05,02,03,48,2.30
2006,05,02,03,49,2.30
2006,05,02,03,50,2.40
2006,05,02,03,51,2.40
2006,05,02,03,52,2.40
2006,05,02,03,53,2.40
2006,05,02,03,54,2.50
2006,05,02,03,55,2.50
2006,05,02,03,56,2.50
2006,05,02,03,57,2.50
2006,05,02,03,58,2.50
2006,05,02,03,59,2.50
2006,05,02,04,00,2.50
2006,05,02,04,01,2.50
2006,05,02,04,02,2.50
2006,05,02,04,03,2.40
2006,05,02,04,04,2.40
2006,05,02,04,05,2.40
2006,05,02,04,06,2.40
2006,05,02,04,07,2.30
2006,05,02,04,08,2.20
2006,05,02,04,09,2.10
2006,05,02,04,10,2.10
2006,05,02,04,11,2.00
2006,05,02,04,12,1.90
2006,05,02,04,13,1.90
2006,05,02,04,14,1.90
2006,05,02,04,15,1.90
2006,05,02,04,16,1.90
2006,05,02,04,17,1.80
2006,05,02,04,18,1.80
2006,05,02,04,19,1.80
2006,05,02,04,20,1.80
2006,05,02,04,21,1.80
2006,05,02,04,22,1.80
2006,05,02,04,23,1.80
2006,05,02,04,24,1.80
2006,05,02,04,25,1.80
2006,05,02,04,26,1.80
2006,05,02,04,27,1.80
2006,05,02,04,28,1.80
2006,05,02,04,29,1.80
2006,05,02,04,30,1.80
2006,05,02,04,31,1.80
2006,05,02,04,32,1.80
2006,05,02,04,33,1.80
2006,05,02,04,34,1.80
2006,05,02,04,35,1.80
2006,05,02,04,36,1.80
2006,05,02,04,37,1.80
2006,05,02,04,38,1.80
2006,05,02,04,39,1.70
2006,05,02,04,40,1.70
2006,05,02,04,41,1.70
2006,05,02,04,42,1.70
2006,05,02,04,43,1.70
2006,05,02,04,44,1.70
2006,05,02,04,45,1.70
2006,05,02,04,46,1.70
2006,05,02,04,47,1.60
2006,05,02,04,48,1.60
2006,05,02,04,49,1.60
2006,05,02,04,50,1.50
2006,05,02,04,51,1.50
2006,05,02,04,52,1.50
2006,05,02,04,53,1.50
2006,05,02,04,54,1.40
2006,05,02,04,55,1.40
2006,05,02,04,56,1.40
2006,05,02,04,57,1.30
2006,05,02,04,58,1.30
2006,05,02,04,59,1.30
2006,05,02,05,00,1.30
2006,05,02,05,01,1.30
2006,05,02,05,02,1.30
2006,05,02,05,03,1.30
2006,05,02,05,04,1.30
2006,05,02,05,05,1.20
2006,05,02,05,06,1.20
2006,05,02,05,07,1.20
2006,05,02,05,08,1.20
2006,05,02,05,09,1.10
2006,05,02,05,10,1.10
2006,05,02,05,11,1.00
2006,05,02,05,12,1.00
2006,05,02,05,13,1.00
2006,05,02,05,14,1.00
2006,05,02,05,15,0.90
2006,05,02,05,16,0.90
2006,05,02,05,17,0.90
2006,05,02,05,18,0.90
2006,05,02,05,19,0.90
2006,05,02,05,20,0.90
2006,05,02,05,21,0.90
2006,05,02,05,22,1.00
2006,05,02,05,23,1.00
2006,05,02,05,24,1.10
2006,05,02,05,25,1.10
2006,05,02,05,26,1.20
2006,05,02,05,27,1.20
2006,05,02,05,28,1.20
2006,05,02,05,29,1.30
2006,05,02,05,30,1.30
2006,05,02,05,31,1.30
2006,05,02,05,32,1.30
2006,05,02,05,33,1.30
2006,05,02,05,34,1.30
2006,05,02,05,35,1.30
2006,05,02,05,36,1.30
2006,05,02,05,37,1.30
2006,05,02,05,38,1.30
2006,05,02,05,39,1.30
2006,05,02,05,40,1.30
2006,05,02,05,41,1.30
2006,05,02,05,42,1.30
2006,05,02,05,43,1.20
2006,05,02,05,44,1.20
2006,05,02,05,45,1.20
2006,05,02,05,46,1.10
2006,05,02,05,47,1.10
2006,05,02,05,48,1.00
2006,05,02,05,49,1.00
2006,05,02,05,50,1.00
2006,05,02,05,51,1.00
2006,05,02,05,52,0.90
2006,05,02,05,53,0.90
2006,05,02,05,54,0.90
2006,05,02,05,55,0.90
2006,05,02,05,56,0.80
2006,05,02,05,57,0.80
2006,05,02,05,58,0.80
2006,05,02,05,59,0.80
2006,05,02,06,00,0.80
2006,05,02,06,01,0.80
2006,05,02,06,02,0.80
2006,05,02,06,03,0.80
2006,05,02,06,04,0.80
2006,05,02,06,05,0.80
2006,05,02,06,06,0.80
2006,05,02,06,07,0.80
2006,05,02,06,08,0.80
2006,05,02,06,09,0.80
2006,05,02,06,10,0.90
2006,05,02,06,11,0.90
2006,05,02,06,12,1.00
2006,05,02,06,13,1.00
2006,05,02,06,14,1.10
2006,05,02,06,15,1.20
2006,05,02,06,16,1.20
2006,05,02,06,17,1.20
2006,05,02,06,18,1.20
2006,05,02,06,19,1.30
2006,05,02,06,20,1.30
2006,05,02,06,21,1.20
2006,05,02,06,22,1.20
2006,05,02,06,23,1.20
2006,05,02,06,24,1.20
2006,05,02,06,25,1.20
2006,05,02,06,26,1.20
2006,05,02,06,27,1.10
2006,05,02,06,28,1.10
2006,05,02,06,29,1.10
2006,05,02,06,30,1.10
2006,05,02,06,31,1.10
2006,05,02,06,32,1.20
2006,05,02,06,33,1.20
2006,05,02,06,34,1.20
2006,05,02,06,35,1.20
2006,05,02,06,36,1.20
2006,05,02,06,37,1.30
2006,05,02,06,38,1.30
2006,05,02,06,39,1.30
2006,05,02,06,40,1.30
2006,05,02,06,41,1.40
2006,05,02,06,42,1.40
2006,05,02,06,43,1.50
2006,05,02,06,44,1.60
2006,05,02,06,45,1.60
2006,05,02,06,46,1.70
2006,05,02,06,47,1.80
2006,05,02,06,48,1.90
2006,05,02,06,49,2.00
2006,05,02,06,50,2.10
2006,05,02,06,51,2.10
2006,05,02,06,52,2.20
2006,05,02,06,53,2.30
2006,05,02,06,54,2.40
2006,05,02,06,55,2.50
2006,05,02,06,56,2.60
2006,05,02,06,57,2.70
2006,05,02,06,58,2.80
2006,05,02,06,59,2.80
2006,05,02,07,00,2.90
2006,05,02,07,01,3.00
2006,05,02,07,02,3.10
2006,05,02,07,03,3.10
2006,05,02,07,04,3.20
2006,05,02,07,05,3.30
2006,05,02,07,06,3.30
2006,05,02,07,07,3.40
2006,05,02,07,08,3.50
2006,05,02,07,09,3.60
2006,05,02,07,10,3.60
2006,05,02,07,11,3.70
2006,05,02,07,12,3.80
2006,05,02,07,13,3.90
2006,05,02,07,14,4.00
2006,05,02,07,15,4.10
2006,05,02,07,16,4.30
2006,05,02,07,17,4.40
2006,05,02,07,18,4.40
2006,05,02,07,19,4.70
2006,05,02,07,20,4.90
2006,05,02,07,21,5.00
2006,05,02,07,22,5.10
2006,05,02,07,23,5.30
2006,05,02,07,24,5.40
2006,05,02,07,25,5.60
2006,05,02,07,26,5.70
2006,05,02,07,27,5.80
2006,05,02,07,28,6.00
2006,05,02,07,29,6.10
2006,05,02,07,30,6.20
2006,05,02,07,31,6.30
2006,05,02,07,32,6.40
2006,05,02,07,33,6.50
2006,05,02,07,34,6.70
2006,05,02,07,35,6.80
2006,05,02,07,36,6.80
2006,05,02,07,37,6.90
2006,05,02,07,38,7.00
2006,05,02,07,39,7.10
2006,05,02,07,40,7.10
2006,05,02,07,41,7.10
2006,05,02,07,42,7.20
2006,05,02,07,43,7.30
2006,05,02,07,44,7.30
2006,05,02,07,45,7.30
2006,05,02,07,46,7.40
2006,05,02,07,47,7.50
2006,05,02,07,48,7.50
2006,05,02,07,49,7.50
2006,05,02,07,50,7.50
2006,05,02,07,51,7.50
2006,05,02,07,52,7.60
2006,05,02,07,53,7.60
2006,05,02,07,54,7.70
2006,05,02,07,55,7.70
2006,05,02,07,56,7.70
2006,05,02,07,57,7.80
2006,05,02,07,58,7.80
2006,05,02,07,59,7.80
2006,05,02,08,00,7.80
2006,05,02,08,01,7.80
2006,05,02,08,02,7.80
2006,05,02,08,03,7.90
2006,05,02,08,04,7.90
2006,05,02,08,05,8.00
2006,05,02,08,06,8.00
2006,05,02,08,07,8.10
2006,05,02,08,08,8.10
2006,05,02,08,09,8.20
2006,05,02,08,10,8.30
2006,05,02,08,11,8.30
2006,05,02,08,12,8.40
2006,05,02,08,13,8.50
2006,05,02,08,14,8.60
2006,05,02,08,15,8.60
2006,05,02,08,16,8.60
2006,05,02,08,17,8.60
2006,05,02,08,18,8.60
2006,05,02,08,19,8.50
2006,05,02,08,20,8.50
2006,05,02,08,21,8.50
2006,05,02,08,22,8.50
2006,05,02,08,23,8.50
2006,05,02,08,24,8.60
2006,05,02,08,25,8.60
2006,05,02,08,26,8.60
2006,05,02,08,27,8.50
2006,05,02,08,28,8.50
2006,05,02,08,29,8.50
2006,05,02,08,30,8.60
2006,05,02,08,31,8.70
2006,05,02,08,32,8.80
2006,05,02,08,33,8.90
2006,05,02,08,34,8.90
2006,05,02,08,35,9.00
2006,05,02,08,36,9.10
2006,05,02,08,37,9.20
2006,05,02,08,38,9.20
2006,05,02,08,39,9.30
2006,05,02,08,40,9.30
2006,05,02,08,41,9.40
2006,05,02,08,42,9.30
2006,05,02,08,43,9.30
2006,05,02,08,44,9.20
2006,05,02,08,45,9.20
2006,05,02,08,46,9.20
2006,05,02,08,47,9.20
2006,05,02,08,48,9.20
2006,05,02,08,49,9.30
2006,05,02,08,50,9.30
2006,05,02,08,51,9.30
2006,05,02,08,52,9.40
2006,05,02,08,53,9.50
2006,05,02,08,54,9.60
2006,05,02,08,55,9.60
2006,05,02,08,56,9.70
2006,05,02,08,57,9.70
2006,05,02,08,58,9.60
2006,05,02,08,59,9.60
2006,05,02,09,00,9.50
2006,05,02,09,01,9.60
2006,05,02,09,02,9.60
2006,05,02,09,03,9.60
2006,05,02,09,04,9.70
2006,05,02,09,05,9.70
2006,05,02,09,06,9.70
2006,05,02,09,07,9.70
2006,05,02,09,08,9.80
2006,05,02,09,09,9.80
2006,05,02,09,10,9.80
2006,05,02,09,11,9.90
2006,05,02,09,12,9.90
2006,05,02,09,13,10.00
2006,05,02,09,14,10.10
2006,05,02,09,15,10.20
2006,05,02,09,16,10.30
2006,05,02,09,17,10.40
2006,05,02,09,18,10.40
2006,05,02,09,19,10.30
2006,05,02,09,20,10.30
2006,05,02,09,21,10.30
2006,05,02,09,22,10.30
2006,05,02,09,23,10.40
2006,05,02,09,24,10.40
2006,05,02,09,25,10.50
2006,05,02,09,26,10.60
2006,05,02,09,27,10.60
2006,05,02,09,28,10.50
2006,05,02,09,29,10.40
2006,05,02,09,30,10.40
2006,05,02,09,31,10.40
2006,05,02,09,32,10.20
2006,05,02,09,33,10.20
2006,05,02,09,34,10.20
2006,05,02,09,35,10.20
2006,05,02,09,36,10.10
2006,05,02,09,37,10.10
2006,05,02,09,38,10.20
2006,05,02,09,39,10.20
2006,05,02,09,40,10.30
2006,05,02,09,41,10.30
2006,05,02,09,42,10.30
2006,05,02,09,43,10.40
2006,05,02,09,44,10.60
2006,05,02,09,45,10.70
2006,05,02,09,46,10.70
2006,05,02,09,47,10.60
2006,05,02,09,48,10.50
2006,05,02,09,49,10.40
2006,05,02,09,50,10.40
2006,05,02,09,51,10.40
2006,05,02,09,52,10.30
2006,05,02,09,53,10.20
2006,05,02,09,54,10.10
2006,05,02,09,55,10.00
2006,05,02,09,56,10.00
2006,05,02,09,57,10.10
2006,05,02,09,58,10.10
2006,05,02,09,59,10.20
2006,05,02,10,00,10.40
2006,05,02,10,01,10.50
2006,05,02,10,02,10.60
2006,05,02,10,03,10.60
2006,05,02,10,04,10.60
2006,05,02,10,05,10.60
2006,05,02,10,06,10.60
2006,05,02,10,07,10.60
2006,05,02,10,08,10.60
2006,05,02,10,09,10.60
2006,05,02,10,10,10.70
2006,05,02,10,11,10.70
2006,05,02,10,12,10.50
2006,05,02,10,13,10.40
2006,05,02,10,14,10.40
2006,05,02,10,15,10.40
2006,05,02,10,16,10.50
2006,05,02,10,17,10.70
2006,05,02,10,18,10.90
2006,05,02,10,19,11.00
2006,05,02,10,20,11.20
2006,05,02,10,21,11.10
2006,05,02,10,22,11.10
2006,05,02,10,23,11.10
2006,05,02,10,24,11.10
2006,05,02,10,25,11.10
2006,05,02,10,26,11.20
2006,05,02,10,27,11.20
2006,05,02,10,28,11.30
2006,05,02,10,29,11.30
2006,05,02,10,30,11.20
2006,05,02,10,31,11.20
2006,05,02,10,32,11.30
2006,05,02,10,33,11.40
2006,05,02,10,34,11.40
2006,05,02,10,35,11.30
2006,05,02,10,36,11.10
2006,05,02,10,37,11.00
2006,05,02,10,38,10.90
2006,05,02,10,39,10.90
2006,05,02,10,40,10.90
2006,05,02,10,41,10.90
2006,05,02,10,42,11.10
2006,05,02,10,43,11.10
2006,05,02,10,44,11.10
2006,05,02,10,45,11.10
2006,05,02,10,46,11.00
2006,05,02,10,47,10.90
2006,05,02,10,48,10.90
2006,05,02,10,49,11.00
2006,05,02,10,50,11.10
2006,05,02,10,51,11.30
2006,05,02,10,52,11.40
2006,05,02,10,53,11.30
2006,05,02,10,54,11.30
2006,05,02,10,55,11.20
2006,05,02,10,56,11.20
2006,05,02,10,57,11.30
2006,05,02,10,58,11.40
2006,05,02,10,59,11.30
2006,05,02,11,00,11.30
2006,05,02,11,01,11.20
2006,05,02,11,02,11.20
2006,05,02,11,03,11.20
2006,05,02,11,04,11.30
2006,05,02,11,05,11.40
2006,05,02,11,06,11.30
2006,05,02,11,07,11.30
2006,05,02,11,08,11.30
2006,05,02,11,09,11.50
2006,05,02,11,10,11.60
2006,05,02,11,11,11.60
2006,05,02,11,12,11.70
2006,05,02,11,13,11.70
2006,05,02,11,14,11.70
2006,05,02,11,15,11.70
2006,05,02,11,16,11.60
2006,05,02,11,17,11.50
2006,05,02,11,18,11.40
2006,05,02,11,19,11.40
2006,05,02,11,20,11.40
2006,05,02,11,21,11.30
2006,05,02,11,22,11.20
2006,05,02,11,23,11.10
2006,05,02,11,24,11.10
2006,05,02,11,25,11.10
2006,05,02,11,26,11.20
2006,05,02,11,27,11.30
2006,05,02,11,28,11.30
2006,05,02,11,29,11.30
2006,05,02,11,30,11.30
2006,05,02,11,31,11.30
2006,05,02,11,32,11.40
2006,05,02,11,33,11.40
2006,05,02,11,34,11.50
2006,05,02,11,35,11.60
2006,05,02,11,36,11.80
2006,05,02,11,37,12.00
2006,05,02,11,38,12.10
2006,05,02,11,39,12.20
2006,05,02,11,40,12.10
2006,05,02,11,41,12.10
2006,05,02,11,42,11.90
2006,05,02,11,43,11.90
2006,05,02,11,44,11.80
2006,05,02,11,45,11.80
2006,05,02,11,46,11.70
2006,05,02,11,47,11.60
2006,05,02,11,48,11.40
2006,05,02,11,49,11.50
2006,05,02,11,50,11.50
2006,05,02,11,51,11.40
2006,05,02,11,52,11.40
2006,05,02,11,53,11.40
2006,05,02,11,54,11.50
2006,05,02,11,55,11.70
2006,05,02,11,56,11.80
2006,05,02,11,57,11.80
2006,05,02,11,58,12.00
2006,05,02,11,59,12.00
2006,05,02,12,00,12.00
2006,05,02,12,01,12.00
2006,05,02,12,02,12.00
2006,05,02,12,03,11.90
2006,05,02,12,04,12.00
2006,05,02,12,05,12.10
2006,05,02,12,06,12.10
2006,05,02,12,07,12.00
2006,05,02,12,08,12.00
2006,05,02,12,09,12.00
2006,05,02,12,10,12.00
2006,05,02,12,11,12.10
2006,05,02,12,12,12.10
2006,05,02,12,13,12.20
2006,05,02,12,14,12.30
2006,05,02,12,15,12.30
2006,05,02,12,16,12.30
2006,05,02,12,17,12.20
2006,05,02,12,18,12.20
2006,05,02,12,19,12.10
2006,05,02,12,20,12.00
2006,05,02,12,21,12.00
2006,05,02,12,22,12.10
2006,05,02,12,23,12.10
2006,05,02,12,24,12.20
2006,05,02,12,25,12.20
2006,05,02,12,26,12.20
2006,05,02,12,27,12.30
2006,05,02,12,28,12.30
2006,05,02,12,29,12.30
2006,05,02,12,30,12.40
2006,05,02,12,31,12.40
2006,05,02,12,32,12.40
2006,05,02,12,33,12.40
2006,05,02,12,34,12.30
2006,05,02,12,35,12.20
2006,05,02,12,36,12.20
2006,05,02,12,37,12.30
2006,05,02,12,38,12.50
2006,05,02,12,39,12.70
2006,05,02,12,40,12.80
2006,05,02,12,41,12.80
2006,05,02,12,42,12.80
2006,05,02,12,43,12.80
2006,05,02,12,44,12.80
2006,05,02,12,45,12.80
2006,05,02,12,46,12.70
2006,05,02,12,47,12.80
2006,05,02,12,48,12.80
2006,05,02,12,49,12.80
2006,05,02,12,50,12.70
2006,05,02,12,51,12.60
2006,05,02,12,52,12.60
2006,05,02,12,53,12.60
2006,05,02,12,54,12.70
2006,05,02,12,55,12.70
2006,05,02,12,56,12.70
2006,05,02,12,57,12.70
2006,05,02,12,58,12.70
2006,05,02,12,59,12.80
2006,05,02,13,00,12.80
2006,05,02,13,01,12.80
2006,05,02,13,02,12.90
2006,05,02,13,03,12.90
2006,05,02,13,04,12.80
2006,05,02,13,05,12.80
2006,05,02,13,06,12.80
2006,05,02,13,07,12.80
2006,05,02,13,08,12.90
2006,05,02,13,09,12.90
2006,05,02,13,10,12.90
2006,05,02,13,11,12.90
2006,05,02,13,12,13.10
2006,05,02,13,13,13.10
2006,05,02,13,14,13.20
2006,05,02,13,15,13.30
2006,05,02,13,16,13.30
2006,05,02,13,17,13.30
2006,05,02,13,18,13.40
2006,05,02,13,19,13.40
2006,05,02,13,20,13.50
2006,05,02,13,21,13.50
2006,05,02,13,22,13.50
2006,05,02,13,23,13.50
2006,05,02,13,24,13.40
2006,05,02,13,25,13.20
2006,05,02,13,26,13.10
2006,05,02,13,27,13.10
2006,05,02,13,28,13.10
2006,05,02,13,29,13.20
2006,05,02,13,30,13.20
2006,05,02,13,31,13.20
2006,05,02,13,32,13.20
2006,05,02,13,33,13.30
2006,05,02,13,34,13.30
2006,05,02,13,35,13.40
2006,05,02,13,36,13.40
2006,05,02,13,37,13.40
2006,05,02,13,38,13.40
2006,05,02,13,39,13.50
2006,05,02,13,40,13.60
2006,05,02,13,41,13.60
2006,05,02,13,42,13.70
2006,05,02,13,43,13.70
2006,05,02,13,44,13.70
2006,05,02,13,45,13.70
2006,05,02,13,46,13.80
2006,05,02,13,47,13.70
2006,05,02,13,48,13.70
2006,05,02,13,49,13.70
2006,05,02,13,50,13.70
2006,05,02,13,51,13.70
2006,05,02,13,52,13.60
2006,05,02,13,53,13.40
2006,05,02,13,54,13.30
2006,05,02,13,55,13.30
2006,05,02,13,56,13.40
2006,05,02,13,57,13.50
2006,05,02,13,58,13.50
2006,05,02,13,59,13.50
2006,05,02,14,00,13.70
2006,05,02,14,01,13.70
2006,05,02,14,02,13.80
2006,05,02,14,03,13.90
2006,05,02,14,04,13.90
2006,05,02,14,05,13.90
2006,05,02,14,06,13.90
2006,05,02,14,07,13.90
2006,05,02,14,08,13.90
2006,05,02,14,09,14.10
2006,05,02,14,10,14.20
2006,05,02,14,11,14.30
2006,05,02,14,12,14.30
2006,05,02,14,13,14.30
2006,05,02,14,14,14.10
2006,05,02,14,15,14.00
2006,05,02,14,16,14.10
2006,05,02,14,17,14.00
2006,05,02,14,18,14.00
2006,05,02,14,19,13.90
2006,05,02,14,20,13.70
2006,05,02,14,21,13.70
2006,05,02,14,22,13.70
2006,05,02,14,23,13.80
2006,05,02,14,24,13.80
2006,05,02,14,25,13.80
2006,05,02,14,26,13.80
2006,05,02,14,27,13.80
2006,05,02,14,28,13.70
2006,05,02,14,29,13.70
2006,05,02,14,30,13.70
2006,05,02,14,31,13.80
2006,05,02,14,32,13.80
2006,05,02,14,33,13.80
2006,05,02,14,34,13.90
2006,05,02,14,35,13.90
2006,05,02,14,36,14.00
2006,05,02,14,37,14.10
2006,05,02,14,38,14.20
2006,05,02,14,39,14.20
2006,05,02,14,40,14.20
2006,05,02,14,41,14.30
2006,05,02,14,42,14.30
2006,05,02,14,43,14.40
2006,05,02,14,44,14.40
2006,05,02,14,45,14.20
2006,05,02,14,46,14.20
2006,05,02,14,47,14.10
2006,05,02,14,48,14.00
2006,05,02,14,49,13.80
2006,05,02,14,50,13.70
2006,05,02,14,51,13.80
2006,05,02,14,52,13.80
2006,05,02,14,53,13.90
2006,05,02,14,54,13.90
2006,05,02,14,55,14.00
2006,05,02,14,56,14.10
2006,05,02,14,57,14.20
2006,05,02,14,58,14.20
2006,05,02,14,59,14.00
2006,05,02,15,00,14.00
2006,05,02,15,01,14.00
2006,05,02,15,02,14.10
2006,05,02,15,03,14.20
2006,05,02,15,04,14.20
2006,05,02,15,05,14.20
2006,05,02,15,06,14.20
2006,05,02,15,07,14.10
2006,05,02,15,08,14.10
2006,05,02,15,09,14.20
2006,05,02,15,10,14.20
2006,05,02,15,11,14.20
2006,05,02,15,12,14.20
2006,05,02,15,13,14.20
2006,05,02,15,14,14.20
2006,05,02,15,15,14.20
2006,05,02,15,16,14.20
2006,05,02,15,17,14.20
2006,05,02,15,18,14.20
2006,05,02,15,19,14.20
2006,05,02,15,20,14.30
2006,05,02,15,21,14.40
2006,05,02,15,22,14.30
2006,05,02,15,23,14.40
2006,05,02,15,24,14.30
2006,05,02,15,25,14.20
2006,05,02,15,26,14.20
2006,05,02,15,27,14.40
2006,05,02,15,28,14.40
2006,05,02,15,29,14.40
2006,05,02,15,30,14.40
2006,05,02,15,31,14.40
2006,05,02,15,32,14.40
2006,05,02,15,33,14.40
2006,05,02,15,34,14.30
2006,05,02,15,35,14.40
2006,05,02,15,36,14.50
2006,05,02,15,37,14.40
2006,05,02,15,38,14.50
2006,05,02,15,39,14.50
2006,05,02,15,40,14.60
2006,05,02,15,41,14.70
2006,05,02,15,42,14.60
2006,05,02,15,43,14.70
2006,05,02,15,44,14.70
2006,05,02,15,45,14.70
2006,05,02,15,46,14.50
2006,05,02,15,47,14.50
2006,05,02,15,48,14.60
2006,05,02,15,49,14.60
2006,05,02,15,50,14.70
2006,05,02,15,51,14.80
2006,05,02,15,52,14.90
2006,05,02,15,53,15.00
2006,05,02,15,54,15.00
2006,05,02,15,55,14.90
2006,05,02,15,56,14.80
2006,05,02,15,57,14.80
2006,05,02,15,58,14.80
2006,05,02,15,59,14.80
2006,05,02,16,00,14.80
2006,05,02,16,01,14.80
2006,05,02,16,02,14.70
2006,05,02,16,03,14.70
2006,05,02,16,04,14.70
2006,05,02,16,05,14.70
2006,05,02,16,06,14.70
2006,05,02,16,07,14.70
2006,05,02,16,08,14.70
2006,05,02,16,09,14.70
2006,05,02,16,10,14.60
2006,05,02,16,11,14.70
2006,05,02,16,12,14.60
2006,05,02,16,13,14.60
2006,05,02,16,14,14.60
2006,05,02,16,15,14.60
2006,05,02,16,16,14.60
2006,05,02,16,17,14.60
2006,05,02,16,18,14.70
2006,05,02,16,19,14.80
2006,05,02,16,20,15.00
2006,05,02,16,21,15.00
2006,05,02,16,22,15.10
2006,05,02,16,23,15.10
2006,05,02,16,24,15.00
2006,05,02,16,25,15.10
2006,05,02,16,26,15.10
2006,05,02,16,27,15.00
2006,05,02,16,28,15.00
2006,05,02,16,29,15.00
2006,05,02,16,30,15.10
2006,05,02,16,31,15.10
2006,05,02,16,32,15.10
2006,05,02,16,33,15.20
2006,05,02,16,34,15.20
2006,05,02,16,35,15.20
2006,05,02,16,36,15.10
2006,05,02,16,37,15.10
2006,05,02,16,38,15.10
2006,05,02,16,39,15.20
2006,05,02,16,40,15.30
2006,05,02,16,41,15.30
2006,05,02,16,42,15.30
2006,05,02,16,43,15.30
2006,05,02,16,44,15.30
2006,05,02,16,45,15.30
2006,05,02,16,46,15.30
2006,05,02,16,47,15.30
2006,05,02,16,48,15.40
2006,05,02,16,49,15.40
2006,05,02,16,50,15.40
2006,05,02,16,51,15.40
2006,05,02,16,52,15.30
2006,05,02,16,53,15.30
2006,05,02,16,54,15.30
2006,05,02,16,55,15.30
2006,05,02,16,56,15.20
2006,05,02,16,57,15.20
2006,05,02,16,58,15.30
2006,05,02,16,59,15.30
2006,05,02,17,00,15.30
2006,05,02,17,01,15.30
2006,05,02,17,02,15.40
2006,05,02,17,03,15.40
2006,05,02,17,04,15.50
2006,05,02,17,05,15.50
2006,05,02,17,06,15.50
2006,05,02,17,07,15.50
2006,05,02,17,08,15.40
2006,05,02,17,09,15.40
2006,05,02,17,10,15.30
2006,05,02,17,11,15.20
2006,05,02,17,12,15.20
2006,05,02,17,13,15.20
2006,05,02,17,14,15.30
2006,05,02,17,15,15.30
2006,05,02,17,16,15.40
2006,05,02,17,17,15.40
2006,05,02,17,18,15.30
2006,05,02,17,19,15.30
2006,05,02,17,20,15.30
2006,05,02,17,21,15.30
2006,05,02,17,22,15.30
2006,05,02,17,23,15.30
2006,05,02,17,24,15.20
2006,05,02,17,25,15.20
2006,05,02,17,26,15.20
2006,05,02,17,27,15.30
2006,05,02,17,28,15.40
2006,05,02,17,29,15.40
2006,05,02,17,30,15.40
2006,05,02,17,31,15.40
2006,05,02,17,32,15.40
2006,05,02,17,33,15.30
2006,05,02,17,34,15.30
2006,05,02,17,35,15.30
2006,05,02,17,36,15.30
2006,05,02,17,37,15.30
2006,05,02,17,38,15.20
2006,05,02,17,39,15.20
2006,05,02,17,40,15.30
2006,05,02,17,41,15.20
2006,05,02,17,42,15.20
2006,05,02,17,43,15.20